KCSQ

Details ICAO KCSQ
Name CRESTON MUNI
Region United States
Timezone America/Chicago (UTC-5.0)
Plans Departing 2
Arriving 4
Stats Elevation 1,300 ft / 396 m (AMSL)
Location 41.021721° -94.362829°
Runways 2
Magnetic Variation 1.360° E
Sunrise 2018-05-26 10:52:13 UTC / 2018-05-26 05:52:13 Local
Sunset 2018-05-27 01:39:43 UTC / 2018-05-26 20:39:43 Local
Advertisement - Login to hide

Runways

ID Width Length Bearing (true) Bearing (mag) Surface Threshold Offset Overrun Length
04 100 ft / 30 m 1,691 ft / 516 m 44.71° 43.35° Grass 0 ft / 0 m 0 ft / 0 m
16 75 ft / 23 m 4,907 ft / 1,496 m 164.90° 163.54° Asphalt 0 ft / 0 m 0 ft / 0 m
22 100 ft / 30 m 1,691 ft / 516 m 224.71° 223.35° Grass 0 ft / 0 m 0 ft / 0 m
34 75 ft / 23 m 4,907 ft / 1,496 m 344.90° 343.54° Asphalt 100 ft / 30 m 0 ft / 0 m

Map

Weather


0- 5 10 15 20 25 30 35+ Temperature / ° C

Clouds and Precipitation
Forecast for 2018-05-26 12:00 UTC. Updated 5 hours ago

Ground ~20,000 ft ~40,000 ft Winds

METAR

KCSQ 261555Z AUTO 00000KT 10SM CLR 31/18 A2981 RMK AO2

TAF

Not found

Frequencies

Recorded 124.75 MHz AWOS 3
Unicom 122.80 MHz CTAF/UNICOM
Warning: Do not use this data for real-world aviation or navigation. No guarantee of current accuracy is given.